STARLINK-2493, 48150

Orbit data source: Space-Track

STARLINK-2493, 48150 is a payload satellite owned by SpaceX/Seattle (US) in LEO that was launched on Wed, 07 Apr 2021 UTC via an FALCON 9 launch vehicle from the Air Force Eastern Test Range (AFETR). Payload-class satellites include a variety of spacecraft equipped with specific instruments for various scientific and technological missions. These include communications satellites like Starlink; space stations such as the ISS; scientific satellites like the Hubble; Earth observation satellites from companies like Planet Labs, Umbra, and HawkEye 360; GPS; miniature CubeSats for education and research; and military/defense satellites.

Loading next visibility...
Identifier
48150, 2021-027BL
Orbit
LEO
Country
Flag of USUS
Related business
Manufacturer
SpaceX/Seattle
Mission
Operational Commercial Communications
Bus & Motor
STARLINK, Unknown motor
Mass
260 kg wet, ~248 kg dry
Launch date (UTC)
2021-04-07 (5 years ago)
Launch vehicle
FALCON 9
Launch site
Air Force Eastern Test Range (AFETR)
Object type
Payload
Rocket body
Debris
Shape & HBR
Box + 1 Pan, 10.1 m
Radar Cross Section
13.562 m², Large (>1 m²)

Expand to show TLE details & history
Last TLE update: 2 days ago

TLE from 2 days ago
0 STARLINK-2493
1 48150U 21027BL  26171.34652591  .00000612  00000-0  31468-4 0  9997
2 48150  53.1617  35.1775 0001052 104.6479 255.4639 15.31703320288412
Epoch: 2026-06-20T08:18Z
TLE epoch observation values (Epoch: 2026-06-20T08:18:59.838Z)
Latitude
-0.00004°
Longitude
1.86568°
Altitude
471.811 km
Speed
7.631 km/s
True Right ascension
02h 20m 42s
True Declination
0° 00' 00"
Sunlit
Object was in daylight at epoch
Visualization orbit readout
Latitude
Unknown
Longitude
Unknown
Altitude
Unknown
Speed
Unknown
Apparent Right ascension
Unknown
Apparent Declination
Unknown
Sunlit
N/A
Visualization observer readout
Local Sidereal Time
21:26:38
Azimuth
Unknown
Elevation
Unknown
Doppler factor
Unknown
Orbital elements
Apogee altitude
471.707 km
Perigee altitude
470.266 km
Semi-major axis
6,849.123 km
Eccentricity
0.00011
Inclination
53.1617°
RAAN
35.1775°
Arg. of periapsis
104.6479°
True anomaly
255.45223°
Mean anomaly
255.4639°
Eccentric anomaly
255.45807°
Mean motion
3.82905 °/min
Orbital period
94.02 mins
BSTAR
0.000031468
Loading maneuver chart data...
Computing Atmospheric mass density...

Documentation

Showing up to 5 results
|